sat.trackr.live / text

‹ back to catalog

SAUDISAT 2

NORAD 28371 · 2004-025F

PAYLOAD ACTIVE UNKNOWN

§ Identity

Operator
Country
SAUD
Launch date
2004-06-29
Launch site
TYMSC
Launch vehicle
Mass (kg)
RCS (m²)
0.27

Purposes: tech_demo

External: N2YO · Heavens-Above · Gunter

§ Orbital elements

Epoch: 2026-09-19T19:39:00.657504Z

Period
98.85 min
Inclination
98.5570°
Eccentricity
0.0024873
Mean motion
14.56727729 rev/d
Perigee alt
686.1 km
Apogee alt
721.4 km
Semi-major
7,081.9 km
B*
4.4885e-5
RAAN
265.2755°
Arg perigee
8.9861°
Mean anomaly
351.1776°
Rev number
17,952

§ Raw data

SAUDISAT 21 28371U 04025F   26262.81875761  .00000152  00000+0  44885-4 0  99932 28371  98.5570 265.2755 0024873   8.9861 351.1776 14.56727729179529

JSON: /api/v1/satellites/28371 · /tle

For live sub-satellite position, see the globe view (requires WebGL).

§ Visibility from observer

Set your observer location to see the next 7 days of passes ≥ 10°. The values pass through the URL so the page stays shareable.

No JS? Fill the form by hand. The geolocation button needs JavaScript.

§ Radio — SatNOGS DB

ModeDescriptionDownlinkUplink
FM Mode V TLM 137.513 MHz

1 transmitter · refreshed weekly from db.satnogs.org